Tracking 32142 objects as of 12-Nov-2025
HD Live streaming from Space Station
objects crossing your sky now

COSMOS 2201

Track COSMOS 2201 now!
10-day predictions
COSMOS 2201 is classified as:


NORAD ID: 22038
Int'l Code: 1992-042E
Perigee: 1,415.0 km
Apogee: 1,430.5 km
Inclination: 82.6 °
Period: 114.1 minutes
Semi major axis: 7793 km
RCS: 1.1289 m2 (large)
Launch date: July 13, 1992
Source: Commonwealth of Independent States (former USSR) (CIS)
Launch site: PLESETSK MISSILE AND SPACE COMPLEX (PKMTR)
Your satellite tracking list
Your tracking list is empty




NASA's NSSDC Master Catalog

Two Line Element Set (TLE):
1 22038U 92042E   25316.27510384  .00000030  00000-0  10644-3 0  9990
2 22038  82.5941  38.5110 0009945  91.7830 323.3147 12.61779893534940
Source of the keplerian elements: AFSPC